Temp
4 4 4 4 4 4 4 4 4 4 4 3 3 3 2 2 2 2 2 2 2 3 3 3 3 3 3 3 3 3 3 3 3 2 2 2 2 2 2 2 2 2 2 2 2 2 2 2 2 2 2 2 2 2 2 2 2 2 2 2 2 2 2 2 2 2 3 3 3 3 3 3 3 3 3 3 3 4 4 4 4 4 4 4 4 4
4 3 3 3 4 4 3 3 3 3 3 3 2 2 2 2 2 1 1 2 2 2 2 2 2 2 2 3 3 3 3 3 2 2 2 2 2 2 2 2 1 1 1 1 1 1 1 1 1 1 1 1 1 1 1 2 2 2 2 2 2 2 2 2 2 2 2 2 2 2 2 2 2 3 3 3 3 3 3 3 4 4 4 4 4 4
3 3 3 3 3 3 3 3 2 2 2 2 2 1 1 1 1 1 1 2 2 2 2 2 2 2 2 3 3 3 3 2 2 2 2 1 1 1 1 1 1 1 1 1 1 1 1 1 1 1 1 1 1 1 1 1 1 1 1 1 1 1 1 1 1 1 1 1 2 2 2 2 2 2 2 3 3 3 3 3 3 3 4 4 4 4
3 3 3 3 3 3 3 3 2 2 1 1 1 1 1 1 1 1 1 1 1 1 1 1 2 2 2 2 2 2 2 2 2 2 1 1 1 1 1 1 1 1 1 1 1 1 1 1 1 1 1 1 1 1 1 1 1 1 1 1 1 1 1 1 1 1 1 1 1 1 1 2 2 2 2 2 2 3 3 3 3 3 3 3 3 3
3 3 3 2 2 2 2 2 2 1 1 1 1 1 1 1 1 1 1 1 1 1 1 1 1 1 2 2 2 2 2 2 2 2 1 1 1 1 1 1 1 1 1 1 1 1 1 1 1 1 1 1 0 0 0 0 0 0 0 0 0 0 1 1 1 1 1 1 1 1 1 1 1 2 2 2 2 2 2 3 3 3 3 3 3 3
2 2 2 2 2 2 2 2 1 1 1 1 1 1 1 1 1 1 1 1 1 1 1 1 1 1 1 1 2 2 2 2 2 2 1 1 1 1 1 1 1 1 1 1 1 1 1 0 0 0 0 0 0 0 0 0 0 0 0 -0 -0 0 0 0 0 0 1 1 1 1 1 1 1 1 1 1 2 2 2 2 2 2 3 3 3 3
2 2 2 2 2 2 2 2 1 1 1 1 1 1 1 1 1 1 1 1 1 1 1 1 1 1 1 1 1 1 2 2 2 1 1 1 1 1 1 1 1 1 1 1 0 0 0 0 0 0 0 0 0 0 0 0 0 -0 -0 -0 -0 -0 -0 0 0 0 0 0 0 1 1 1 1 1 1 1 1 1 2 2 2 2 2 2 2 3
2 2 2 2 2 2 2 1 1 1 1 1 1 1 1 1 1 1 1 1 1 1 1 1 1 1 1 1 1 1 1 1 1 1 1 1 1 1 1 1 0 0 0 0 0 0 0 0 0 0 -0 -0 -0 -0 -0 -0 -0 -0 -0 -0 -0 -0 -0 -0 -0 -0 -0 -0 0 0 0 1 1 1 1 1 1 1 1 1 1 2 2 2 2 2
2 2 2 2 2 2 1 1 1 1 1 1 1 1 1 1 1 1 1 1 1 1 1 1 1 1 1 1 1 1 1 1 1 1 1 1 1 1 0 0 0 0 0 0 0 0 0 -0 -0 -0 -0 -0 -0 -0 -0 -0 -0 -1 -1 -1 -1 -1 -1 -1 -1 -1 -1 -0 -0 -0 -0 0 0 0 1 1 1 1 1 1 1 1 1 2 2 2
2 2 2 2 2 2 1 1 1 1 1 1 1 1 1 1 1 1 1 1 1 1 1 1 1 1 1 1 1 1 1 1 1 1 1 0 0 0 0 0 0 0 -0 -0 -0 -0 -0 -0 -0 -0 -0 -1 -1 -1 -1 -1 -1 -1 -1 -1 -1 -1 -1 -1 -1 -1 -1 -1 -1 -1 -0 -0 -0 0 0 0 0 0 1 1 1 1 1 1 1 2
2 2 2 1 1 1 1 1 1 1 1 1 1 1 1 1 1 1 1 1 1 1 1 1 1 1 1 1 1 1 1 1 1 0 0 0 0 0 0 -0 -0 -0 -0 -0 -0 -0 -0 -1 -1 -1 -1 -1 -1 -1 -1 -1 -1 -1 -1 -1 -1 -1 -1 -1 -1 -1 -1 -1 -1 -1 -1 -1 -0 -0 -0 -0 0 0 0 0 0 1 1 1 1 1
1 1 1 1 1 1 1 1 1 1 1 1 1 1 1 1 1 1 1 1 1 1 1 1 1 1 1 1 1 1 1 0 0 0 0 0 -0 -0 -0 -0 -0 -0 -0 -0 -0 -0 -1 -1 -1 -1 -1 -1 -1 -1 -1 -1 -1 -1 -1 -1 -1 -1 -2 -2 -2 -2 -1 -1 -1 -1 -1 -1 -1 -1 -0 -0 -0 -0 -0 0 0 0 0 0 1 1
1 1 1 1 1 1 1 1 1 1 1 1 1 1 1 1 1 1 1 1 1 1 1 1 1 1 1 1 1 0 0 0 0 0 -0 -0 -0 -0 -0 -0 -0 -0 -0 -0 -1 -1 -1 -1 -1 -1 -1 -1 -1 -1 -1 -1 -1 -1 -1 -1 -2 -2 -2 -2 -2 -2 -2 -2 -1 -1 -1 -1 -1 -1 -1 -1 -0 -0 -0 -0 -0 -0 -0 0 0 0
1 1 1 1 1 1 1 1 1 1 1 1 1 1 1 1 1 1 1 1 1 1 1 1 1 1 1 1 0 0 0 0 0 -0 -0 -0 -0 -0 -0 -0 -0 -0 -0 -1 -1 -1 -1 -1 -1 -1 -1 -1 -1 -1 -1 -1 -1 -2 -2 -2 -2 -2 -2 -2 -2 -2 -2 -2 -2 -1 -1 -1 -1 -1 -1 -1 -1 -1 -1 -0 -0 -0 -0 -0 -0 0
1 1 1 1 1 1 1 1 1 1 1 1 1 1 1 1 1 1 1 1 1 1 1 1 1 1 1 0 0 0 0 0 -0 -0 -0 -0 -1 -1 -1 -0 -0 -0 -0 -1 -1 -1 -1 -1 -1 -1 -1 -1 -1 -1 -2 -2 -2 -2 -2 -2 -2 -2 -2 -2 -2 -2 -2 -2 -2 -2 -1 -1 -1 -1 -1 -1 -1 -1 -1 -1 -1 -1 -0 -0 -0 0
1 1 1 1 1 1 1 1 1 1 1 1 1 1 1 1 1 1 1 1 1 0 0 0 0 0 0 0 -0 -0 -0 -0 -1 -1 -1 -1 -1 -1 -1 -1 -0 -0 -0 -1 -1 -1 -1 -1 -1 -1 -1 -1 -1 -2 -2 -2 -2 -2 -2 -2 -2 -2 -2 -2 -2 -2 -2 -2 -2 -2 -1 -1 -1 -1 -1 -1 -1 -1 -1 -1 -1 -1 -1 -0 -0 -0
1 1 1 1 1 1 1 1 1 1 1 1 1 1 1 1 1 1 1 1 0 0 0 0 0 0 0 -0 -1 -1 -1 -1 -1 -1 -1 -1 -0 -1 -1 -1 -1 -0 -1 -1 -1 -1 -1 -1 -1 -1 -1 -1 -1 -2 -2 -2 -2 -2 -2 -2 -2 -2 -2 -2 -2 -2 -2 -2 -2 -2 -2 -2 -1 -1 -1 -1 -1 -1 -1 -1 -1 -1 -1 -1 -0 -0
1 1 1 1 1 1 1 1 1 1 1 1 1 1 1 1 1 1 1 0 0 0 -0 -0 -0 0 0 -0 -1 -1 -1 -1 -1 -1 -1 -1 -1 -1 -1 -1 -1 -1 -1 -1 -1 -1 -1 -1 -1 -1 -1 -1 -2 -2 -2 -2 -2 -2 -2 -2 -2 -2 -2 -2 -2 -2 -2 -2 -2 -2 -2 -2 -2 -2 -1 -1 -1 -1 -1 -1 -1 -1 -1 -1 -1 -1
2 2 2 2 2 1 1 1 1 1 1 1 1 1 0 0 0 0 0 0 0 -0 -0 -0 -1 -1 -0 -1 -1 -1 -1 -1 -1 -1 -1 -1 -1 -1 -1 -1 -1 -1 -1 -1 -1 -1 -1 -1 -1 -1 -1 -1 -2 -2 -2 -2 -2 -2 -2 -2 -2 -2 -2 -2 -2 -2 -2 -2 -2 -2 -2 -2 -2 -2 -2 -2 -2 -1 -1 -1 -1 -1 -1 -1 -1 -1
2 2 2 2 2 1 1 1 1 1 1 1 1 1 0 0 0 -0 -0 -0 -0 -0 -0 -1 -1 -1 -1 -1 -1 -1 -2 -2 -2 -2 -2 -1 -1 -1 -1 -1 -1 -1 -1 -1 -1 -1 -1 -1 -1 -1 -1 -2 -2 -2 -2 -2 -2 -2 -2 -2 -2 -2 -2 -2 -2 -2 -2 -2 -2 -2 -2 -2 -2 -2 -2 -2 -2 -2 -2 -1 -1 -1 -1 -1 -1 -1
2 2 2 2 2 2 1 1 1 1 1 1 1 1 0 0 -0 -0 -0 -0 -0 -1 -1 -1 -1 -1 -1 -1 -1 -2 -2 -2 -2 -2 -2 -2 -1 -1 -1 -1 -1 -1 -1 -1 -1 -1 -1 -1 -1 -1 -2 -2 -2 -2 -2 -2 -2 -2 -2 -2 -2 -2 -2 -2 -2 -2 -2 -2 -2 -2 -2 -2 -2 -2 -2 -2 -2 -2 -2 -1 -1 -1 -1 -1 -1 -1
2 2 2 2 2 2 1 1 1 1 1 1 1 1 0 0 0 -0 -0 -0 -1 -1 -1 -1 -1 -1 -1 -1 -1 -2 -2 -2 -2 -2 -2 -2 -1 -1 -1 -1 -1 -1 -1 -1 -1 -1 -1 -1 -1 -2 -2 -2 -2 -2 -2 -2 -2 -2 -2 -2 -2 -2 -2 -2 -2 -2 -2 -3 -2 -2 -2 -2 -2 -2 -2 -2 -2 -2 -2 -2 -1 -1 -1 -1 -1 -1
2 2 2 1 1 1 1 1 1 1 0 0 0 0 0 0 0 -0 -0 -1 -1 -1 -1 -1 -2 -2 -2 -2 -2 -2 -2 -2 -2 -2 -2 -2 -1 -1 -1 -1 -1 -1 -1 -1 -1 -1 -1 -1 -2 -2 -2 -2 -2 -2 -2 -2 -2 -2 -2 -2 -2 -2 -2 -2 -2 -2 -3 -3 -3 -3 -3 -3 -2 -2 -2 -2 -2 -2 -2 -2 -2 -2 -1 -1 -1 -1
1 1 1 1 1 1 1 1 1 0 0 0 0 -0 -0 -0 -0 -1 -1 -1 -1 -1 -2 -2 -2 -2 -2 -2 -2 -2 -2 -2 -2 -2 -2 -2 -2 -1 -1 -1 -1 -1 -1 -1 -1 -1 -1 -1 -2 -2 -2 -2 -2 -2 -2 -2 -2 -2 -2 -2 -2 -2 -2 -2 -2 -2 -3 -3 -3 -3 -3 -3 -3 -2 -2 -2 -2 -2 -2 -2 -2 -2 -2 -2 -1 -1
1 1 1 1 1 1 0 0 0 0 0 -0 -0 -0 -1 -1 -1 -1 -1 -2 -2 -2 -2 -2 -2 -2 -2 -2 -2 -2 -2 -2 -2 -2 -2 -2 -2 -2 -2 -2 -2 -2 -2 -2 -2 -1 -1 -1 -2 -2 -2 -2 -1 -1 -1 -2 -2 -2 -2 -2 -2 -2 -2 -2 -3 -3 -3 -3 -3 -3 -3 -3 -3 -3 -3 -3 -3 -3 -3 -2 -2 -2 -2 -2 -2 -1
0 0 0 0 0 0 -0 -0 -0 -0 -0 -0 -1 -1 -1 -1 -1 -1 -2 -2 -2 -2 -2 -2 -2 -2 -2 -2 -2 -2 -2 -2 -2 -2 -2 -2 -2 -2 -2 -2 -2 -2 -2 -2 -2 -2 -2 -2 -2 -2 -2 -1 -1 -1 -2 -2 -2 -2 -2 -3 -3 -3 -3 -3 -3 -3 -3 -3 -3 -3 -3 -3 -3 -3 -3 -3 -3 -3 -3 -3 -3 -3 -2 -2 -2 -2
-0 -0 -0 -0 -0 -0 -0 -1 -1 -1 -1 -1 -1 -1 -1 -1 -2 -2 -2 -2 -2 -2 -2 -3 -3 -3 -3 -2 -2 -2 -2 -2 -2 -2 -3 -3 -2 -2 -2 -2 -2 -2 -2 -2 -2 -2 -2 -2 -2 -2 -2 -2 -2 -2 -2 -2 -2 -2 -3 -3 -3 -3 -3 -3 -3 -3 -3 -3 -3 -3 -3 -3 -3 -3 -3 -3 -3 -3 -3 -3 -3 -3 -3 -2 -2 -2
-1 -1 -1 -1 -1 -1 -1 -1 -1 -1 -1 -2 -2 -2 -2 -2 -2 -2 -2 -2 -2 -3 -3 -3 -3 -3 -3 -3 -3 -3 -2 -3 -3 -3 -3 -3 -3 -2 -2 -2 -2 -2 -2 -2 -2 -2 -2 -2 -2 -2 -2 -2 -2 -2 -2 -2 -2 -2 -2 -2 -2 -2 -2 -3 -3 -3 -3 -3 -3 -3 -3 -3 -3 -3 -3 -3 -3 -3 -3 -3 -3 -3 -3 -3 -3 -3
-1 -2 -2 -2 -2 -2 -2 -2 -2 -2 -2 -2 -2 -2 -2 -2 -2 -2 -2 -2 -3 -3 -3 -3 -3 -3 -3 -3 -3 -3 -3 -3 -3 -3 -3 -3 -3 -2 -2 -2 -2 -3 -3 -3 -2 -2 -2 -2 -2 -2 -2 -2 -2 -2 -2 -2 -2 -2 -2 -2 -2 -2 -2 -3 -3 -3 -3 -3 -3 -3 -3 -3 -3 -3 -3 -3 -3 -3 -3 -3 -3 -3 -3 -3 -3 -3
-2 -2 -2 -2 -2 -2 -2 -2 -2 -2 -2 -2 -2 -2 -3 -3 -3 -2 -3 -3 -3 -3 -3 -3 -3 -4 -4 -4 -4 -4 -3 -3 -3 -3 -3 -3 -3 -2 -2 -2 -3 -3 -3 -3 -2 -2 -2 -3 -3 -3 -3 -2 -2 -2 -2 -2 -2 -3 -3 -3 -3 -3 -3 -3 -3 -3 -3 -3 -3 -3 -3 -3 -3 -3 -3 -3 -3 -3 -3 -3 -3 -3 -3 -3 -3 -3
-2 -2 -2 -2 -2 -2 -2 -2 -2 -2 -2 -2 -2 -2 -2 -3 -3 -3 -3 -3 -3 -3 -3 -3 -4 -4 -4 -4 -5 -5 -4 -3 -3 -3 -3 -3 -3 -3 -3 -3 -3 -3 -3 -3 -3 -3 -4 -3 -2 -3 -3 -2 -2 -2 -2 -2 -3 -3 -3 -3 -3 -3 -3 -3 -3 -3 -3 -3 -3 -3 -3 -3 -3 -4 -4 -4 -4 -4 -4 -3 -3 -3 -3 -3 -3 -3
-2 -2 -2 -2 -2 -2 -2 -2 -2 -2 -2 -2 -2 -2 -2 -3 -3 -3 -3 -3 -3 -3 -3 -4 -4 -4 -4 -4 -5 -4 -3 -3 -3 -4 -4 -3 -3 -3 -3 -3 -3 -3 -3 -4 -3 -4 -5 -3 -2 -3 -3 -3 -2 -2 -2 -2 -2 -2 -3 -3 -3 -3 -3 -3 -3 -3 -3 -3 -3 -3 -3 -3 -3 -4 -4 -4 -4 -4 -4 -4 -4 -3 -3 -4 -4 -4
-2 -2 -2 -2 -2 -2 -2 -2 -2 -2 -2 -2 -2 -2 -2 -3 -3 -3 -3 -3 -3 -3 -3 -4 -4 -4 -4 -4 -4 -4 -3 -3 -4 -4 -4 -4 -4 -4 -4 -4 -3 -3 -4 -4 -4 -4 -4 -3 -3 -3 -3 -3 -2 -2 -2 -2 -3 -3 -3 -3 -3 -3 -3 -3 -3 -3 -3 -4 -4 -4 -4 -4 -4 -4 -4 -4 -4 -4 -4 -4 -4 -4 -4 -4 -4 -4
-2 -2 -2 -2 -3 -3 -3 -3 -3 -3 -3 -3 -3 -3 -3 -3 -3 -3 -3 -3 -3 -3 -3 -4 -4 -4 -4 -4 -4 -4 -4 -3 -4 -4 -4 -4 -4 -4 -4 -4 -4 -4 -4 -4 -4 -4 -4 -4 -3 -3 -3 -3 -3 -3 -3 -3 -3 -3 -3 -3 -3 -3 -3 -3 -3 -4 -4 -4 -4 -4 -4 -4 -4 -4 -4 -4 -4 -4 -4 -4 -4 -4 -4 -4 -4 -4
-3 -3 -3 -3 -3 -3 -3 -3 -3 -3 -3 -3 -3 -3 -3 -3 -3 -3 -3 -3 -3 -3 -3 -4 -4 -4 -4 -4 -4 -4 -4 -3 -4 -4 -4 -5 -5 -4 -4 -4 -4 -4 -4 -4 -4 -4 -4 -4 -4 -4 -4 -4 -4 -4 -3 -3 -3 -3 -3 -3 -3 -3 -3 -3 -4 -4 -4 -4 -4 -4 -4 -4 -4 -4 -4 -4 -4 -4 -4 -4 -4 -4 -4 -4 -4 -4
-3 -3 -3 -3 -3 -3 -3 -3 -3 -3 -3 -3 -3 -3 -3 -3 -3 -3 -3 -3 -3 -3 -3 -4 -4 -4 -4 -4 -4 -4 -4 -4 -4 -5 -5 -5 -5 -5 -5 -5 -5 -5 -5 -5 -5 -5 -4 -4 -4 -5 -5 -5 -5 -4 -4 -4 -4 -4 -4 -4 -4 -4 -4 -4 -4 -4 -4 -4 -4 -4 -4 -4 -4 -4 -4 -4 -4 -4 -4 -4 -4 -4 -4 -4 -4 -4
-3 -3 -3 -3 -3 -3 -3 -3 -3 -3 -3 -3 -3 -3 -3 -3 -3 -3 -3 -3 -3 -4 -4 -4 -4 -4 -4 -4 -4 -4 -4 -4 -5 -5 -5 -5 -5 -5 -5 -5 -5 -5 -5 -5 -5 -5 -5 -5 -5 -5 -5 -5 -5 -5 -4 -4 -4 -4 -4 -4 -4 -4 -4 -4 -4 -4 -5 -5 -5 -5 -4 -4 -4 -4 -4 -4 -4 -4 -4 -4 -4 -4 -4 -4 -4 -4
-3 -3 -3 -3 -3 -3 -3 -3 -3 -3 -3 -3 -3 -3 -3 -3 -3 -3 -3 -3 -3 -4 -4 -4 -4 -4 -4 -4 -5 -5 -5 -5 -5 -5 -5 -5 -5 -5 -5 -5 -5 -5 -5 -5 -5 -5 -5 -5 -6 -6 -5 -5 -5 -5 -5 -5 -5 -5 -4 -4 -4 -4 -4 -4 -4 -5 -5 -5 -5 -5 -5 -5 -5 -5 -4 -4 -4 -4 -4 -4 -4 -4 -4 -4 -4 -4
-3 -3 -3 -3 -3 -3 -3 -3 -3 -3 -3 -3 -3 -3 -3 -3 -3 -3 -3 -4 -4 -4 -4 -4 -4 -4 -4 -5 -5 -5 -5 -5 -5 -5 -5 -5 -5 -5 -5 -6 -6 -6 -6 -6 -6 -6 -6 -6 -6 -6 -6 -5 -5 -5 -5 -5 -5 -5 -5 -5 -4 -4 -4 -4 -4 -5 -5 -5 -5 -5 -5 -5 -5 -5 -5 -4 -4 -4 -4 -4 -4 -4 -4 -4 -4 -4
-2 -3 -3 -3 -3 -3 -3 -3 -3 -3 -3 -3 -3 -3 -3 -3 -3 -4 -4 -4 -4 -4 -4 -4 -4 -5 -5 -5 -5 -5 -5 -5 -5 -5 -5 -5 -5 -5 -6 -6 -6 -6 -6 -6 -6 -6 -6 -6 -6 -6 -6 -6 -6 -6 -6 -6 -6 -6 -6 -6 -5 -5 -4 -4 -4 -5 -5 -5 -5 -5 -5 -5 -5 -5 -5 -5 -5 -4 -4 -4 -4 -4 -4 -4 -4 -4
-2 -3 -3 -3 -3 -3 -3 -3 -4 -4 -4 -4 -4 -4 -4 -4 -4 -4 -4 -4 -4 -4 -4 -4 -5 -5 -5 -5 -5 -5 -5 -5 -5 -5 -5 -5 -5 -6 -6 -6 -6 -6 -6 -6 -6 -6 -6 -6 -6 -6 -6 -6 -6 -6 -6 -6 -6 -6 -6 -6 -6 -5 -4 -4 -4 -5 -5 -5 -5 -5 -5 -5 -5 -5 -5 -5 -5 -5 -4 -4 -4 -4 -4 -4 -4 -4
-3 -3 -3 -3 -3 -3 -4 -4 -4 -4 -4 -4 -4 -4 -4 -4 -4 -4 -4 -4 -4 -4 -4 -5 -5 -5 -5 -5 -5 -5 -5 -5 -5 -5 -5 -5 -5 -6 -6 -6 -6 -6 -6 -6 -6 -6 -6 -6 -6 -7 -7 -7 -7 -7 -7 -7 -6 -6 -7 -6 -6 -6 -5 -4 -4 -5 -5 -5 -5 -5 -5 -5 -5 -5 -5 -5 -5 -4 -5 -4 -4 -4 -4 -4 -4 -4
-3 -3 -3 -3 -3 -3 -4 -4 -4 -4 -4 -4 -4 -4 -4 -4 -4 -4 -4 -4 -4 -5 -5 -5 -5 -5 -5 -5 -5 -5 -5 -5 -5 -5 -5 -5 -5 -5 -5 -6 -6 -6 -6 -6 -6 -6 -6 -6 -6 -6 -6 -7 -7 -7 -7 -7 -7 -7 -7 -7 -7 -7 -6 -5 -4 -4 -5 -5 -5 -5 -5 -5 -5 -5 -5 -5 -4 -4 -4 -4 -4 -4 -4 -4 -4 -4
-3 -3 -3 -3 -3 -3 -4 -4 -4 -4 -4 -4 -4 -4 -4 -4 -4 -4 -5 -5 -5 -5 -5 -5 -5 -5 -5 -5 -5 -4 -4 -5 -5 -5 -5 -5 -5 -5 -5 -5 -6 -6 -6 -6 -6 -6 -6 -6 -6 -6 -6 -7 -7 -7 -7 -7 -7 -7 -7 -7 -7 -7 -7 -6 -5 -5 -5 -5 -5 -5 -5 -5 -5 -5 -5 -4 -4 -4 -4 -4 -4 -4 -4 -4 -4 -4
-3 -3 -3 -3 -3 -3 -3 -3 -3 -4 -4 -4 -4 -4 -4 -4 -4 -4 -5 -5 -5 -5 -5 -5 -5 -6 -6 -6 -5 -5 -5 -5 -5 -5 -5 -5 -5 -5 -5 -6 -6 -6 -6 -6 -6 -6 -6 -6 -6 -6 -6 -7 -7 -7 -7 -7 -8 -7 -7 -7 -7 -7 -7 -6 -6 -6 -5 -5 -5 -5 -5 -5 -5 -5 -5 -4 -4 -4 -4 -4 -4 -4 -4 -4 -4 -4
-3 -3 -3 -3 -3 -3 -3 -3 -3 -4 -4 -4 -4 -4 -4 -4 -4 -4 -5 -5 -5 -5 -5 -5 -6 -6 -6 -6 -6 -6 -5 -5 -5 -5 -5 -5 -5 -5 -6 -6 -6 -6 -6 -6 -6 -6 -6 -6 -6 -6 -7 -7 -7 -7 -7 -7 -7 -7 -7 -7 -7 -8 -7 -7 -6 -6 -5 -5 -5 -5 -5 -5 -5 -5 -5 -4 -4 -4 -4 -4 -4 -4 -4 -4 -4 -4
-3 -3 -3 -3 -3 -3 -3 -3 -3 -4 -4 -4 -4 -4 -4 -4 -4 -4 -5 -5 -5 -5 -5 -5 -6 -6 -6 -6 -6 -6 -6 -6 -6 -5 -5 -5 -5 -5 -6 -6 -6 -6 -6 -6 -6 -6 -6 -6 -6 -6 -7 -7 -7 -7 -7 -7 -7 -7 -7 -7 -7 -7 -7 -7 -6 -6 -5 -5 -5 -5 -5 -5 -5 -5 -5 -5 -4 -4 -4 -4 -4 -4 -4 -4 -4 -4
-2 -3 -3 -3 -3 -3 -3 -3 -3 -3 -4 -4 -4 -4 -4 -4 -4 -4 -5 -5 -5 -5 -5 -5 -6 -6 -6 -6 -6 -6 -6 -6 -6 -6 -6 -6 -6 -6 -6 -6 -6 -6 -6 -6 -6 -6 -6 -6 -6 -6 -7 -7 -7 -7 -7 -7 -7 -7 -7 -7 -7 -7 -7 -7 -6 -5 -5 -5 -5 -5 -5 -5 -5 -5 -5 -5 -5 -4 -4 -4 -4 -4 -4 -4 -4 -4
-2 -3 -3 -3 -3 -3 -3 -3 -3 -3 -4 -4 -4 -4 -4 -4 -4 -4 -5 -5 -5 -5 -5 -5 -6 -6 -6 -6 -6 -6 -6 -6 -6 -6 -6 -6 -6 -6 -6 -6 -6 -6 -6 -6 -6 -6 -6 -6 -6 -6 -7 -7 -7 -7 -7 -7 -7 -7 -7 -7 -7 -7 -7 -7 -6 -5 -5 -5 -5 -5 -5 -5 -5 -5 -5 -5 -5 -5 -4 -4 -4 -4 -4 -4 -4 -4
-2 -2 -3 -3 -3 -3 -3 -3 -3 -3 -4 -3 -3 -4 -4 -4 -4 -4 -5 -5 -5 -5 -5 -5 -6 -6 -6 -6 -6 -6 -6 -6 -6 -6 -6 -6 -6 -6 -6 -6 -6 -6 -6 -6 -6 -6 -7 -7 -6 -7 -7 -7 -7 -7 -7 -7 -7 -7 -7 -7 -7 -7 -7 -7 -6 -5 -5 -5 -5 -5 -5 -5 -5 -5 -5 -6 -6 -5 -5 -5 -4 -4 -4 -4 -5 -5
-2 -2 -2 -3 -3 -3 -3 -3 -3 -3 -3 -4 -4 -4 -4 -4 -4 -4 -5 -5 -5 -5 -5 -5 -6 -6 -6 -6 -6 -6 -6 -6 -6 -6 -6 -6 -6 -6 -6 -6 -7 -7 -7 -7 -7 -7 -7 -6 -6 -6 -6 -6 -6 -6 -6 -7 -7 -7 -7 -7 -7 -7 -7 -6 -6 -5 -5 -5 -5 -5 -5 -5 -5 -5 -5 -6 -6 -6 -6 -5 -5 -5 -5 -5 -5 -5
Height
817 817 818 819 820 821 821 822 822 823 823 824 824 824 824 825 825 825 825 826 826 827 827 827 827 827 827 828 828 828 828 828 828 828 828 829 829 830 830 830 830 830 830 831 831 831 831 831 831 831 831 831 830 830 830 830 830 830 830 830 830 830 830 830 830 831 831 831 831 831 831 830 830 830 830 830 830 830 830 830 831 831 831 831 831 831
816 817 818 819 819 820 821 821 822 822 823 823 823 823 824 824 824 825 825 825 826 826 827 827 827 827 827 827 828 828 828 828 828 828 828 829 829 829 830 830 830 831 831 831 831 831 831 831 831 831 831 831 831 830 830 830 830 829 829 829 829 829 829 830 830 830 830 830 830 830 830 830 830 830 830 830 830 830 830 830 830 830 830 831 831 831
815 817 817 818 819 819 820 821 821 822 822 822 822 823 823 824 824 824 825 825 825 826 826 827 827 827 827 827 827 827 828 828 827 828 828 828 829 829 830 830 830 831 831 831 831 831 831 831 831 831 831 831 831 830 830 830 829 829 829 829 829 829 829 829 829 829 829 829 829 829 829 829 829 829 829 830 830 830 830 830 830 830 830 830 830 831
814 815 816 817 818 819 820 820 821 821 822 822 822 822 823 823 824 824 824 825 825 825 826 826 827 827 827 827 827 827 827 827 827 827 828 828 829 829 830 830 830 831 831 831 831 831 831 831 831 831 831 831 830 830 830 830 829 829 829 829 828 828 828 828 828 828 828 828 828 828 828 828 829 829 829 829 829 829 830 830 830 830 830 830 830 830
813 814 815 817 817 818 819 820 820 821 821 822 822 822 822 823 823 824 824 824 825 825 826 826 826 827 827 827 827 827 827 827 827 827 828 828 829 829 830 830 831 831 831 831 831 831 831 831 831 831 831 830 830 830 830 829 829 829 828 828 828 828 827 827 827 827 827 827 828 828 828 828 828 828 828 828 829 829 829 829 829 829 830 830 830 830
813 814 815 816 817 818 819 819 820 820 821 821 822 822 822 823 823 823 824 824 825 825 825 826 826 826 827 827 827 827 827 827 827 827 828 828 829 830 830 830 831 831 831 831 831 831 831 831 831 830 830 830 830 829 829 829 829 828 828 827 827 827 827 827 827 827 827 827 827 827 827 827 827 827 827 828 828 828 828 828 829 829 829 829 829 830
813 814 814 816 816 817 818 819 819 820 820 821 821 822 822 822 823 823 824 824 825 825 825 826 826 826 826 827 827 827 827 827 827 827 828 828 829 829 830 830 830 830 830 830 830 830 830 830 830 830 830 830 829 829 829 828 828 828 827 827 827 827 826 826 826 826 826 826 826 826 826 827 827 827 827 827 827 827 828 828 828 828 829 829 829 829
812 813 814 815 816 817 818 818 819 819 820 820 821 821 822 822 822 823 823 824 824 825 825 825 826 826 826 826 826 827 827 827 827 827 828 828 829 829 829 830 830 830 830 830 830 830 830 830 830 830 829 829 829 829 828 828 827 827 827 826 826 826 826 826 825 825 825 825 825 825 825 826 826 826 826 826 827 827 827 827 827 828 828 828 828 829
810 812 813 814 815 816 817 818 818 819 820 820 820 821 821 822 822 823 823 824 824 825 825 825 825 826 826 826 826 826 826 826 827 827 827 828 828 829 829 829 829 829 829 829 829 829 829 829 829 829 829 828 828 828 828 827 827 826 826 826 825 825 825 825 825 824 824 824 824 824 825 825 825 825 825 826 826 826 826 826 827 827 827 827 828 828
809 810 812 813 814 815 816 817 817 818 819 820 820 820 821 821 822 822 823 823 824 824 825 825 825 825 825 826 826 826 826 826 826 827 827 827 828 828 828 828 828 828 829 829 829 829 829 829 829 828 828 828 827 827 827 826 826 826 825 825 825 824 824 824 824 824 824 824 824 824 824 824 824 824 825 825 825 825 825 826 826 826 827 827 827 827
809 810 812 813 814 815 815 816 817 817 818 819 819 820 821 821 822 822 822 823 823 824 824 825 825 825 825 825 825 825 826 826 826 827 827 827 827 828 828 828 828 828 828 828 828 828 828 828 828 827 827 827 827 826 826 826 825 825 825 824 824 824 824 823 823 823 823 823 823 823 823 823 824 824 824 824 824 824 825 825 825 825 826 826 826 826
809 810 811 812 813 814 815 815 816 817 818 818 819 820 820 821 821 822 822 822 823 823 824 824 824 825 825 825 825 825 825 826 826 826 827 827 827 827 827 827 827 827 827 827 827 827 827 827 827 827 826 826 826 826 825 825 825 824 824 824 823 823 823 823 823 823 823 823 823 823 823 823 823 823 823 823 824 824 824 824 824 825 825 825 825 826
808 810 811 812 812 813 814 815 816 817 817 818 818 819 819 820 821 821 822 822 822 823 823 824 824 824 824 824 825 825 825 825 826 826 826 827 827 827 827 827 827 827 827 827 827 827 826 826 826 826 826 825 825 825 824 824 824 824 823 823 823 823 822 822 822 822 822 822 822 822 823 823 823 823 823 823 823 823 823 824 824 824 824 824 825 825
808 809 810 811 812 813 813 814 815 816 817 817 817 818 818 819 820 821 821 822 822 822 823 823 823 824 824 824 824 824 824 825 825 825 826 826 826 826 826 826 826 826 826 826 826 826 826 826 825 825 825 824 824 824 823 823 823 823 823 823 822 822 822 822 822 822 822 822 822 822 822 822 822 823 823 823 823 823 823 823 823 823 823 824 824 824
808 809 810 811 812 812 813 813 814 815 816 816 817 817 818 819 820 820 821 821 822 822 822 823 823 823 823 823 823 824 824 824 824 825 825 825 825 825 825 825 825 825 825 825 825 825 825 825 825 824 824 824 823 823 823 823 822 822 822 822 822 822 822 822 822 821 822 822 822 822 822 822 822 822 822 822 822 822 822 823 823 823 823 823 823 824
807 808 809 810 811 812 812 813 814 815 815 816 817 817 818 819 819 820 820 821 821 822 822 822 822 823 823 823 823 823 823 823 824 824 824 824 825 825 825 824 824 824 824 824 824 824 824 824 824 824 823 823 823 822 822 822 822 822 822 822 822 822 821 821 821 821 821 821 821 821 822 822 822 822 822 822 822 822 822 822 822 822 822 823 823 823
807 808 808 809 810 811 812 813 814 814 815 816 817 817 818 818 819 819 820 820 820 821 821 822 822 822 822 822 822 822 822 823 823 823 823 824 824 824 824 824 824 823 823 823 823 823 823 823 823 823 823 822 822 822 822 822 822 822 822 822 821 821 821 821 821 820 821 821 821 821 821 821 821 821 822 822 822 822 822 822 822 822 822 822 822 822
807 808 808 809 810 811 812 812 813 814 815 815 816 817 817 818 818 819 819 819 820 820 821 821 821 821 821 822 822 822 822 822 822 822 823 823 823 823 823 823 823 823 822 822 822 822 822 822 822 822 822 822 822 822 822 822 822 821 821 821 821 821 820 820 820 820 820 820 820 820 820 821 821 821 821 821 821 821 821 821 821 821 822 822 822 822
807 807 808 809 809 810 811 812 813 813 814 815 816 816 817 817 818 818 819 819 819 820 820 820 820 821 821 821 821 821 822 822 822 822 822 822 822 823 822 822 822 822 822 822 822 822 822 822 822 822 822 822 821 821 821 821 821 821 821 821 820 820 820 819 819 819 819 819 819 820 820 820 820 820 820 820 820 821 821 821 821 821 821 821 821 821
807 807 808 809 809 810 811 812 812 813 814 815 815 816 816 817 817 818 818 818 819 819 819 820 820 820 820 821 821 821 821 822 822 822 822 822 822 822 822 822 822 822 822 822 822 822 821 821 821 821 821 821 821 821 820 820 820 820 820 820 820 819 819 819 818 818 818 819 819 819 819 819 819 820 820 820 820 820 820 820 820 820 820 820 821 821
807 807 808 809 809 810 811 811 812 813 814 814 815 816 816 817 817 817 817 818 818 818 819 819 819 820 820 821 821 821 821 821 821 821 821 821 821 821 821 821 821 821 821 821 821 821 821 821 821 820 820 820 820 820 820 820 820 820 820 819 819 819 818 818 818 818 818 818 818 819 819 819 819 819 819 819 819 819 819 820 820 820 820 820 820 820
807 807 808 809 809 810 811 811 812 813 814 814 815 815 815 816 816 817 817 817 818 818 818 819 819 819 819 820 820 820 820 820 821 821 821 821 820 820 821 821 821 821 821 821 820 820 820 820 820 820 819 819 819 819 819 819 819 819 819 819 818 818 818 817 817 817 817 817 818 818 818 818 818 818 818 818 818 818 819 819 819 819 819 819 819 819
807 807 808 809 810 810 811 812 812 813 813 814 814 815 815 815 816 816 817 817 817 818 818 818 818 819 819 819 819 820 820 820 820 820 821 820 820 820 820 820 820 820 820 820 820 820 819 819 819 819 819 818 818 818 818 818 818 818 818 818 818 818 817 817 817 817 817 817 817 817 817 817 817 817 817 817 817 818 818 818 818 818 818 818 818 819
807 808 808 809 810 810 811 812 812 812 813 814 814 815 815 815 816 816 817 817 817 817 817 818 818 818 818 818 819 819 819 819 820 820 820 820 820 819 820 820 820 820 819 819 819 819 819 819 818 818 817 817 817 817 817 817 818 818 818 818 817 817 817 817 817 817 817 817 817 817 817 817 817 817 817 817 817 817 817 817 817 817 817 817 818 818
808 808 809 809 810 810 811 811 812 812 813 813 814 814 814 815 815 816 816 816 817 817 817 817 817 817 818 818 818 818 818 819 819 819 819 819 819 819 819 819 819 819 819 819 818 818 818 818 817 817 817 816 816 817 817 817 817 817 817 817 817 817 817 817 817 817 817 817 817 817 817 817 817 816 816 816 816 816 816 816 816 817 817 817 817 817
808 808 809 809 810 810 811 811 812 812 813 813 813 814 814 814 815 815 816 816 816 816 817 817 817 817 817 817 818 818 818 818 818 819 819 819 819 818 818 818 818 818 818 818 818 817 817 817 816 816 816 816 816 816 817 817 817 817 817 817 817 817 817 817 817 817 817 816 816 816 816 816 816 816 816 816 816 815 815 815 815 816 816 816 816 816
808 808 809 809 810 810 811 811 812 812 812 813 813 813 814 814 814 815 815 815 815 816 816 816 817 817 817 817 817 817 818 818 818 818 818 818 818 818 818 818 818 818 817 817 817 817 816 816 816 815 815 815 816 816 816 817 817 817 817 817 816 816 816 816 816 816 816 816 816 816 816 815 815 815 815 815 815 815 815 815 815 815 815 815 815 815
808 809 809 810 810 811 811 811 812 812 812 812 813 813 813 814 814 814 814 815 815 815 816 816 816 816 817 817 817 817 817 817 817 817 817 818 818 817 817 817 817 817 817 817 816 816 816 815 815 815 815 815 815 816 816 816 816 816 816 816 816 815 815 815 815 815 815 815 815 815 815 815 815 814 814 814 814 814 814 814 814 814 814 814 814 814
808 809 809 810 810 811 811 812 812 812 812 812 812 813 813 813 813 814 814 814 814 815 815 815 816 816 816 816 816 816 816 816 816 817 817 817 817 817 817 817 817 817 817 816 816 816 815 815 815 815 815 815 815 815 815 816 816 815 815 815 815 815 815 814 814 815 815 815 814 814 814 814 814 813 813 813 813 813 813 813 813 813 813 813 813 813
808 809 809 809 810 810 811 811 812 812 812 813 813 813 812 813 813 813 813 814 814 814 815 815 815 815 816 816 816 815 815 815 815 816 816 816 816 816 816 816 816 816 816 816 816 815 815 815 815 815 815 815 815 815 815 815 815 815 815 814 814 814 814 814 814 813 813 813 813 813 813 813 813 812 812 812 812 812 812 812 812 812 812 812 812 812
808 808 809 809 809 810 810 811 811 812 812 812 813 813 812 812 812 813 813 813 813 814 814 814 815 815 815 816 816 816 815 815 815 815 815 816 816 816 816 816 816 816 816 816 816 815 815 815 814 815 814 814 814 815 815 814 814 814 814 814 813 813 813 813 813 812 812 812 812 812 812 812 812 812 811 811 811 811 811 811 811 811 811 811 811 811
808 808 808 809 809 810 810 810 811 811 811 812 812 812 812 812 812 812 812 813 813 813 813 814 814 814 814 815 815 815 814 815 815 815 815 815 815 815 815 816 816 815 815 816 816 816 815 814 814 814 814 814 814 814 814 814 814 813 813 813 812 812 812 812 812 812 812 811 811 811 811 811 811 810 810 810 810 810 810 810 810 810 810 810 810 810
808 808 808 809 809 809 810 810 810 811 811 811 811 811 812 812 812 812 812 812 812 812 813 813 813 813 814 814 814 814 814 814 814 814 814 815 815 815 815 815 815 815 815 815 815 815 815 814 814 814 814 814 813 813 813 813 813 812 812 812 812 812 812 811 811 811 811 810 810 810 810 810 809 809 809 809 809 809 809 809 809 809 809 809 809 809
807 808 808 808 809 809 809 810 810 810 810 810 811 811 811 811 811 811 811 812 812 812 812 812 812 812 813 813 813 813 813 814 814 814 814 814 814 814 814 814 814 814 814 814 814 814 814 814 814 813 813 813 812 812 812 812 812 812 811 811 811 811 811 811 810 810 809 809 809 809 808 808 808 808 808 808 807 807 808 808 808 808 809 808 808 808
807 807 808 808 808 809 809 809 809 809 809 810 810 810 810 810 810 810 811 811 811 811 811 811 812 812 812 812 812 812 812 813 813 813 813 813 813 813 813 813 814 814 814 814 814 814 813 813 813 813 812 812 811 811 811 811 811 811 811 810 810 810 810 810 809 809 808 808 807 807 807 807 807 807 807 807 807 807 807 807 807 807 807 808 807 807
807 807 807 808 808 808 808 808 809 809 809 809 809 809 809 809 810 810 810 810 810 811 811 811 811 811 811 811 811 811 812 812 812 812 812 812 812 813 813 813 813 813 813 813 813 813 813 812 812 812 812 812 811 810 810 810 810 810 810 810 809 809 809 809 808 807 807 807 806 806 806 806 806 806 806 806 806 806 806 806 806 806 806 806 807 807
807 807 807 807 807 807 808 808 808 808 808 808 808 808 809 809 809 809 809 810 810 810 810 810 810 810 811 811 811 811 811 811 812 812 811 812 812 812 812 812 812 812 812 812 812 812 812 812 812 811 811 811 810 810 809 809 809 809 809 808 808 808 808 808 807 806 806 806 805 805 805 805 805 805 805 805 805 805 805 805 805 805 805 805 805 805
806 806 807 807 807 807 807 807 807 807 807 807 808 808 808 808 808 809 809 809 809 809 809 809 810 810 810 810 810 810 810 810 811 811 811 811 811 811 811 811 811 811 812 812 812 812 812 811 811 810 810 809 809 809 808 808 808 807 807 807 807 807 807 807 806 806 805 805 804 804 804 804 804 804 804 804 804 804 804 804 804 804 804 804 804 804
805 806 806 806 806 806 806 807 807 807 807 807 807 807 807 808 808 808 808 808 808 808 808 809 809 809 809 809 809 809 809 809 809 809 810 810 810 810 810 810 810 810 810 810 810 810 810 810 810 809 809 808 808 807 807 807 807 806 806 805 805 805 806 805 805 804 804 804 804 804 804 804 803 803 803 803 803 803 803 803 803 804 803 803 803 803
805 805 805 805 806 806 806 806 806 806 806 806 807 807 807 807 807 807 807 807 807 808 808 808 808 808 808 808 808 808 808 808 808 808 808 808 808 809 809 809 809 809 809 809 809 809 809 808 808 808 808 807 807 807 806 806 806 806 805 805 804 803 804 804 804 803 803 803 803 803 803 803 803 803 803 803 803 803 803 803 803 803 803 802 802 802
804 804 805 805 805 805 805 805 805 805 806 806 806 806 806 806 807 807 807 807 807 807 807 807 807 807 807 807 807 807 807 807 807 807 807 807 807 807 807 807 807 807 807 807 807 807 807 807 807 807 806 806 806 806 805 805 805 805 805 804 803 802 802 802 802 802 802 802 802 802 802 802 802 802 802 802 802 802 802 802 802 802 802 802 802 802
804 804 804 804 805 805 805 805 805 805 805 805 805 805 805 806 806 806 806 806 806 806 806 806 806 805 805 805 805 805 805 805 806 806 806 806 806 806 806 806 807 807 806 806 806 805 805 805 805 805 805 805 805 804 804 803 803 804 804 803 802 802 801 801 802 802 802 802 802 802 802 802 801 801 801 801 801 801 801 801 801 801 801 801 801 801
803 803 803 804 804 804 804 804 804 804 804 804 804 804 805 805 805 805 805 805 805 805 805 805 804 804 804 804 804 804 804 804 804 805 805 805 805 805 805 805 805 805 805 805 804 804 804 804 804 803 803 804 804 803 803 802 802 802 802 802 802 802 801 800 800 801 801 801 801 801 801 801 800 800 800 800 800 800 801 801 801 801 801 800 800 800
802 802 803 803 803 803 803 803 803 803 803 803 804 804 804 804 804 804 804 804 804 804 804 804 803 803 803 803 803 803 803 803 803 803 804 804 804 804 804 804 804 804 804 803 803 803 803 802 802 802 802 803 802 802 802 801 801 801 801 801 801 801 800 799 799 799 799 800 800 800 800 800 799 799 799 799 799 800 800 800 800 800 800 800 799 799
802 802 802 802 802 802 802 802 802 803 803 803 803 803 803 803 803 803 803 803 803 803 803 803 803 802 802 802 802 802 802 802 802 802 803 803 803 803 803 803 803 803 802 802 802 802 802 802 801 801 802 802 801 801 801 800 800 800 800 800 800 800 799 798 798 798 798 798 798 799 799 798 798 798 798 798 798 799 799 799 799 799 799 799 799 798
800 801 801 801 801 801 801 801 802 802 802 802 802 802 802 802 802 802 802 802 802 802 802 802 802 802 801 801 801 801 801 801 801 802 802 802 802 802 802 802 802 801 801 801 801 801 801 801 801 801 801 801 800 799 799 799 799 799 798 799 799 798 797 797 797 797 797 797 797 797 797 797 797 797 797 797 797 797 797 798 798 798 798 798 797 797
799 799 800 800 800 800 800 800 800 800 801 801 801 801 801 801 801 801 801 801 801 801 801 801 801 801 801 801 801 801 800 800 800 800 801 801 801 801 801 801 800 800 800 800 800 800 800 800 800 800 800 799 799 798 797 798 798 798 797 797 797 797 797 796 796 796 797 797 797 797 797 797 796 796 796 796 796 796 796 796 797 797 797 797 796 796
798 798 798 798 798 799 799 799 799 799 799 799 799 800 800 800 800 800 800 800 800 800 800 800 800 800 800 800 800 800 800 799 799 799 799 800 800 800 800 800 799 799 799 799 799 799 799 799 799 799 798 798 798 797 796 796 797 797 797 797 796 796 795 795 795 795 795 796 796 796 796 796 796 795 795 794 794 794 794 795 795 795 795 795 795 795
797 797 797 797 797 797 797 797 797 797 797 798 798 798 798 799 799 799 799 799 799 799 799 799 799 799 799 799 799 799 799 799 798 798 798 798 798 798 798 798 798 798 798 798 798 798 797 797 797 797 797 797 796 796 795 795 795 795 795 795 795 795 794 794 794 794 795 795 795 795 795 795 795 795 794 794 793 792 792 793 793 794 794 794 794 794
795 795 795 795 795 795 795 796 796 796 796 796 796 797 797 797 797 797 797 797 797 797 797 797 797 797 797 797 797 797 798 797 797 797 797 797 797 797 797 797 797 797 797 797 797 797 797 796 795 795 795 795 795 794 794 794 794 794 794 794 794 794 793 793 793 793 794 794 794 794 794 794 794 794 794 793 792 791 791 791 791 792 792 792 792 792
793 793 793 794 794 794 794 794 794 794 794 795 795 795 795 796 796 796 796 796 796 796 796 796 796 796 796 796 796 796 796 796 796 796 796 796 796 796 796 796 797 797 797 797 796 796 796 795 794 793 792 792 792 792 793 793 793 793 793 793 793 793 793 792 792 792 793 793 793 793 793 793 793 793 793 792 792 791 790 789 790 790 791 791 791 791
Wind_Speed
17 17 16 15 14 13 11 10 10 9 8 8 9 9 10 10 10 10 11 11 11 11 11 11 10 9 9 9 8 8 7 7 6 4 2 1 1 2 2 2 2 1 1 1 2 3 3 3 3 3 3 3 3 3 3 3 3 3 3 3 3 3 3 3 2 2 2 1 1 1 2 2 1 1 2 2 2 2 2 1 1 1 1 2 2 3
18 18 16 15 14 13 11 10 10 8 8 7 8 8 9 10 10 9 9 9 9 9 9 9 9 9 8 8 7 7 6 5 4 2 1 1 1 2 2 2 1 1 2 2 3 3 3 3 3 2 2 2 2 2 1 1 1 1 1 1 1 1 1 1 1 1 1 1 1 1 1 1 1 1 2 2 2 2 3 3 3 3 2 3 3 3
19 18 17 15 14 12 11 10 9 8 7 6 5 7 9 10 10 9 8 8 7 8 8 7 7 7 6 5 5 4 4 3 2 1 1 1 1 1 1 2 2 2 3 3 3 3 3 3 2 2 1 1 0 0 1 1 1 2 2 2 2 2 2 2 2 2 2 2 2 2 2 2 2 2 2 2 2 2 3 4 4 4 3 3 3 3
20 19 18 16 14 12 11 10 8 7 7 6 5 7 11 11 10 9 8 7 7 7 6 6 5 4 3 3 3 2 2 1 1 1 2 2 2 2 2 2 3 3 3 3 3 3 3 2 2 1 1 1 1 2 2 3 3 3 3 3 4 4 4 4 4 4 4 4 4 4 4 3 3 2 3 3 3 3 4 4 4 4 3 3 3 3
19 19 18 16 14 12 11 10 9 8 7 7 6 8 11 11 11 9 8 7 7 6 6 5 4 3 3 2 2 2 2 2 2 2 2 3 3 2 2 2 3 3 3 3 3 3 3 2 2 2 2 2 3 3 3 4 4 4 4 4 4 5 5 5 5 6 6 6 6 6 5 4 4 4 3 3 4 4 4 4 4 4 4 4 4 4
18 18 18 16 14 13 13 11 10 9 9 8 8 9 11 11 11 10 9 8 7 7 7 6 4 4 3 3 3 3 3 2 2 3 3 3 3 3 3 3 3 3 3 3 3 3 3 3 3 3 4 4 4 5 5 5 5 5 5 5 5 5 6 6 6 7 7 7 7 7 6 6 6 5 5 4 4 4 4 4 5 5 5 5 5 5
18 18 17 15 14 14 14 13 11 10 10 10 10 10 10 10 10 10 10 9 9 8 8 7 5 5 4 3 3 3 3 2 2 2 3 4 4 4 4 4 3 3 3 3 4 4 4 4 4 4 5 5 5 5 5 5 5 5 5 5 6 6 7 7 7 8 7 7 7 7 7 7 7 6 6 6 5 5 5 5 5 5 5 5 5 6
18 18 16 15 15 14 14 13 12 11 11 11 11 11 10 10 9 10 10 10 10 9 8 7 6 6 5 4 3 2 2 2 1 1 2 3 4 5 5 5 5 4 4 4 4 4 4 5 5 5 5 5 5 5 6 5 5 5 5 6 7 7 8 8 8 8 8 7 7 7 7 7 7 7 7 6 6 6 6 6 6 6 6 6 6 6
20 18 17 16 15 14 14 13 13 12 12 12 11 10 10 10 10 10 10 10 10 9 9 8 7 7 6 5 3 2 1 1 1 1 2 3 4 5 5 6 6 6 6 5 5 5 5 5 5 4 5 5 5 5 5 5 5 6 7 7 8 8 9 8 8 7 7 6 6 6 6 6 6 6 7 7 7 7 7 6 6 6 6 6 6 6
20 19 18 17 16 15 13 13 13 14 14 12 11 10 10 10 11 11 11 10 10 9 9 8 8 7 6 5 4 3 2 2 2 2 3 4 5 5 6 6 7 7 6 6 5 5 5 4 4 4 4 4 5 5 5 5 6 7 8 8 8 9 8 8 7 6 5 5 5 5 5 5 5 6 6 6 7 7 7 7 7 7 7 7 7 6
18 18 17 15 15 14 13 14 15 15 14 12 11 10 10 10 11 11 11 11 10 9 9 8 8 7 6 5 5 4 3 3 3 4 4 5 6 6 7 7 8 8 7 7 6 6 6 5 5 6 7 7 7 7 7 7 8 8 8 8 8 8 8 7 6 5 4 4 4 4 4 4 4 5 5 5 6 6 6 7 7 7 7 7 7 7
17 16 14 13 13 13 13 14 16 16 14 12 10 9 10 11 11 12 12 12 11 10 10 9 8 8 7 6 5 5 5 4 5 5 5 6 6 7 7 8 8 9 9 9 9 8 8 8 9 9 10 10 10 9 9 9 9 9 9 8 7 7 6 6 5 4 4 4 3 3 3 3 3 3 4 4 4 5 5 6 6 6 7 7 7 7
17 15 13 13 13 13 13 14 16 15 14 12 10 9 10 11 12 12 11 12 12 11 11 10 9 8 7 7 6 6 6 6 6 6 6 7 7 8 8 9 9 9 10 10 10 10 11 11 11 11 11 11 10 10 9 9 8 8 7 7 6 5 5 5 5 4 4 4 3 3 3 3 3 3 3 3 3 3 4 4 5 5 6 6 6 7
16 15 14 13 12 13 13 15 15 14 13 11 10 10 11 12 13 12 11 12 12 12 11 10 9 8 8 7 7 7 7 7 7 7 7 7 8 8 8 9 9 10 10 11 11 11 11 11 10 10 10 10 9 8 7 7 6 5 5 4 4 4 5 5 4 4 4 4 3 3 2 2 2 2 2 3 3 3 3 3 4 4 5 5 6 6
16 15 13 13 12 13 13 15 15 14 13 11 11 11 12 12 12 12 11 11 11 11 11 10 9 8 8 8 8 8 8 8 8 8 8 8 8 8 8 8 9 10 10 11 11 11 10 9 9 8 9 8 7 6 4 4 3 3 4 4 4 4 5 4 4 4 4 4 3 3 2 2 2 2 3 3 3 3 3 3 3 4 4 5 5 6
17 16 14 14 14 14 13 14 14 13 12 12 11 11 11 12 12 12 11 11 11 11 10 8 7 6 7 8 8 8 8 8 8 8 8 8 8 8 8 8 8 9 9 9 9 9 8 8 7 7 7 6 5 3 2 2 3 3 4 4 4 5 5 5 4 4 4 4 3 3 3 3 3 3 3 3 3 3 4 4 4 4 4 4 4 5
16 15 15 15 15 14 14 14 14 13 13 12 12 11 11 11 12 12 11 11 11 10 8 7 5 3 4 5 7 8 8 8 8 9 9 8 8 8 8 8 8 7 7 7 7 7 6 6 6 6 5 4 3 2 2 2 3 3 4 4 4 5 5 5 5 5 5 4 4 4 4 4 4 4 4 4 4 4 4 4 4 4 4 4 4 5
15 15 15 15 14 14 15 15 14 14 14 13 13 12 11 11 11 11 11 10 10 8 7 6 5 3 3 3 4 6 7 7 7 8 9 9 9 8 8 8 7 6 6 5 5 5 5 5 5 5 4 3 2 2 2 3 3 3 4 4 5 5 6 6 6 6 5 4 4 4 4 4 4 4 4 4 4 4 5 5 5 5 5 5 5 5
15 14 14 14 14 14 15 15 15 14 14 14 13 13 12 11 10 10 9 9 8 8 7 6 5 5 4 3 4 5 6 6 7 8 9 10 9 8 7 6 5 5 4 4 4 4 4 4 4 4 4 3 3 3 3 3 3 3 4 4 5 5 6 7 7 6 5 3 3 3 4 4 4 4 4 5 5 5 5 5 5 5 6 6 6 6
15 14 14 13 14 14 15 15 15 14 14 13 13 12 11 10 9 9 8 8 8 8 8 7 6 6 6 5 4 5 6 6 7 8 9 9 9 7 5 4 4 4 4 3 3 4 4 4 4 4 4 4 4 4 3 3 3 3 4 4 5 6 7 7 7 5 3 2 1 2 3 3 3 4 4 4 4 5 5 5 5 6 6 6 6 6
13 13 13 12 13 14 15 14 14 13 12 11 11 11 10 10 9 8 8 8 7 7 7 7 7 7 7 6 5 5 7 7 7 7 7 8 7 6 4 4 3 3 3 3 3 4 4 4 4 5 5 5 5 5 4 3 3 3 4 4 5 6 7 7 5 4 2 1 1 2 2 3 3 3 3 4 4 4 4 5 5 6 6 6 7 7
11 12 11 11 11 12 13 13 12 11 10 10 10 10 9 9 9 8 8 8 7 7 7 6 6 6 7 6 7 7 7 7 7 6 6 5 6 5 4 3 4 4 4 4 4 4 4 4 5 5 6 7 7 6 5 4 3 3 3 5 5 6 6 5 4 2 1 1 1 2 3 3 3 3 4 4 4 4 4 4 5 5 5 6 6 7
9 10 10 10 10 10 11 11 11 11 10 9 8 8 8 7 7 7 8 7 7 7 6 6 6 7 7 7 7 7 6 6 6 6 5 4 4 4 4 4 4 5 5 4 4 4 5 5 6 6 7 8 7 7 5 3 2 2 3 4 4 4 4 5 4 3 2 2 2 3 3 3 4 4 4 4 5 4 4 5 5 5 5 5 6 6
8 9 9 9 9 8 9 9 10 10 10 9 8 7 6 6 6 6 6 6 6 7 7 7 7 7 7 7 6 6 5 5 5 5 5 4 4 4 5 5 5 5 5 5 5 6 6 7 6 7 8 8 7 6 4 3 3 2 2 3 3 4 4 5 4 4 3 3 3 4 4 4 4 5 5 5 5 5 6 6 6 6 6 6 6 6
8 8 8 8 8 7 7 8 9 9 9 9 8 8 8 7 7 7 7 7 7 7 7 6 5 5 5 5 4 4 4 4 4 4 4 4 4 5 6 6 6 6 6 6 7 7 8 8 7 7 7 7 6 4 4 4 3 2 1 3 4 4 5 5 5 4 4 4 4 5 5 5 5 5 5 5 6 6 6 6 6 6 7 6 6 6
7 7 7 7 7 7 6 7 7 7 8 8 8 8 8 8 8 7 7 7 7 6 5 4 4 4 4 4 3 3 3 3 4 4 4 4 4 5 6 6 6 6 7 8 8 9 9 7 6 6 6 5 4 4 4 5 3 1 1 3 4 4 5 5 5 5 5 5 5 5 5 5 5 5 5 5 6 6 6 6 7 7 7 7 7 8
5 5 5 5 5 5 5 5 5 6 6 7 7 7 8 8 7 7 7 7 6 5 4 3 3 3 4 4 3 3 3 4 4 5 5 5 5 4 5 6 6 6 7 8 9 9 8 6 4 4 4 4 4 5 6 5 4 2 2 3 4 4 4 5 5 5 5 5 5 5 5 5 5 5 5 6 6 6 6 6 7 7 7 7 8 9
4 4 4 4 4 4 4 4 4 4 5 5 6 6 6 6 6 6 6 6 5 5 4 4 4 3 3 3 3 4 5 6 6 6 6 6 5 4 5 6 6 6 7 8 8 7 5 3 2 3 4 5 6 7 7 6 4 3 4 5 6 6 5 5 5 4 5 5 5 5 5 5 5 6 6 6 6 7 6 7 7 7 7 7 8 9
5 5 5 5 5 5 5 5 5 5 4 4 4 4 4 5 5 5 5 5 5 5 5 5 5 4 4 4 6 7 7 7 6 7 7 6 5 5 5 5 5 6 6 7 6 5 3 2 3 4 6 6 7 7 6 5 4 4 5 7 8 8 7 6 5 4 4 4 4 5 5 5 6 6 7 7 7 7 7 7 7 7 7 7 8 9
6 7 7 7 8 8 9 9 8 8 7 6 5 4 5 4 4 4 4 5 5 5 5 6 6 6 5 5 5 5 5 4 3 4 5 5 4 4 5 5 5 5 6 5 4 3 2 2 4 6 7 7 7 7 6 4 4 6 8 9 9 9 8 8 7 6 5 5 5 5 6 6 7 8 8 9 8 8 7 7 7 7 7 8 8 9
7 8 8 9 9 9 10 10 10 10 10 9 8 7 7 6 6 6 6 7 7 7 6 6 7 6 6 4 2 1 3 1 3 3 3 3 3 4 4 4 5 5 6 4 3 3 1 2 4 6 7 7 7 6 6 5 7 9 10 10 9 8 8 8 8 8 8 7 7 7 8 8 9 9 10 10 10 9 8 7 7 7 7 8 8 9
7 8 8 8 8 8 9 9 10 10 10 10 10 9 9 8 8 8 9 9 8 8 7 7 7 7 7 6 5 4 3 1 2 2 3 3 3 4 5 5 5 5 6 5 3 2 1 2 3 5 7 8 7 7 7 8 10 11 10 9 8 8 7 8 9 9 9 10 10 10 11 11 12 12 12 12 11 9 8 7 6 6 7 7 8 9
7 7 7 7 7 7 7 8 8 9 9 10 10 10 10 10 10 10 10 9 9 8 8 8 8 8 8 9 9 9 7 6 5 6 6 5 5 5 6 6 6 6 6 6 5 4 4 3 4 5 7 9 10 10 11 12 12 11 9 8 7 7 8 8 9 10 11 12 12 13 13 14 14 14 14 13 12 10 8 6 6 6 6 7 8 9
7 7 7 7 7 7 7 7 8 8 9 10 10 10 10 10 10 10 9 9 8 8 7 7 7 8 8 9 11 11 11 9 9 9 9 8 6 5 6 6 6 6 6 6 5 5 5 6 6 5 6 9 11 12 13 12 11 9 8 7 7 8 9 10 11 12 13 14 14 14 15 15 15 14 13 12 11 9 7 6 5 6 6 7 7 8
7 7 7 7 8 8 8 9 9 10 11 11 11 11 11 11 10 9 9 8 7 7 7 7 7 7 8 9 10 11 11 8 7 8 9 8 7 6 6 6 6 6 6 5 5 4 4 6 7 6 6 8 11 13 13 11 9 8 8 8 9 10 11 12 13 14 14 14 14 14 13 13 12 11 11 10 9 8 6 6 6 6 6 6 7 7
8 8 8 8 8 9 9 10 10 11 11 11 12 11 11 10 10 9 8 7 7 7 7 7 7 8 8 8 9 10 9 7 6 7 8 8 8 8 7 6 6 6 6 6 6 5 4 5 6 8 8 9 10 10 10 9 8 8 10 11 12 13 13 13 13 13 13 12 11 10 10 9 8 8 8 8 8 8 7 7 7 7 7 7 6 7
8 8 8 8 8 8 9 9 9 9 9 9 10 10 10 9 9 8 8 8 8 8 8 8 8 9 9 9 9 9 8 7 6 7 8 9 10 9 8 7 7 8 8 7 7 7 7 7 8 9 10 10 8 6 7 9 11 13 14 15 15 15 14 12 11 11 10 9 8 7 6 6 6 6 6 7 7 8 8 8 8 8 8 8 7 7
7 7 7 7 7 7 7 7 7 7 6 6 7 7 7 7 7 7 8 8 8 8 9 9 9 9 10 10 10 10 9 8 8 9 9 10 11 11 11 10 10 10 10 10 10 9 9 9 8 8 9 10 10 10 11 13 14 16 17 17 16 15 13 11 10 9 9 8 7 6 5 5 5 6 6 7 7 8 8 8 8 8 9 9 9 9
6 5 5 4 4 5 5 5 5 5 5 5 5 6 6 6 6 7 7 8 8 8 9 9 9 10 10 11 11 12 11 11 10 10 10 11 11 12 12 13 13 13 13 13 13 12 12 11 10 9 9 10 11 12 13 14 15 16 18 19 18 16 13 11 10 9 8 7 6 5 5 5 5 6 6 7 7 7 8 8 8 8 9 9 10 10
5 4 3 3 3 3 4 4 5 5 5 5 5 6 6 6 7 7 8 8 8 9 9 10 11 11 12 12 13 13 13 12 12 12 11 11 12 12 13 14 14 14 14 14 14 14 14 14 15 14 14 12 12 13 14 14 15 16 17 17 16 15 13 12 9 7 5 5 4 4 4 5 5 5 6 6 6 7 7 7 8 8 9 9 10 10
5 4 3 2 2 3 3 4 5 6 6 6 6 7 7 7 7 8 8 9 9 10 11 11 12 13 13 13 14 14 14 13 13 12 12 12 12 12 13 13 14 14 14 15 15 15 15 16 16 17 17 17 16 17 17 17 17 16 15 15 16 17 16 12 7 4 3 3 3 4 5 5 5 5 6 6 6 6 6 7 7 7 8 8 9 9
6 6 4 3 3 3 4 5 6 6 7 7 8 8 8 8 8 9 9 10 11 11 12 12 12 13 13 13 13 13 13 12 12 12 12 11 11 11 12 12 12 13 13 14 15 16 16 16 16 17 17 17 16 16 16 17 16 15 14 14 16 16 14 9 4 2 3 4 4 5 5 6 6 6 6 6 6 6 6 6 6 6 7 7 8 8
7 7 5 5 4 5 5 6 6 7 7 8 8 9 9 9 10 10 10 11 12 12 12 12 12 12 12 12 12 11 11 11 11 11 11 10 10 10 10 10 11 11 12 14 15 16 16 16 16 16 16 15 15 15 15 15 15 14 14 13 13 12 9 8 6 6 6 7 6 6 6 6 7 7 7 7 7 6 5 5 6 6 6 6 6 6
8 8 7 6 6 7 7 7 8 8 8 9 9 10 10 10 10 11 11 12 12 12 12 11 11 11 11 12 12 11 9 9 9 9 9 9 9 9 9 9 9 10 12 13 15 15 15 16 16 16 15 14 14 14 14 13 13 13 13 12 12 11 11 12 12 11 10 8 7 6 6 7 8 8 8 8 7 6 6 6 6 5 5 5 5 6
10 9 9 9 9 9 9 9 9 9 9 10 10 10 10 10 11 11 12 12 12 12 11 11 10 10 10 11 12 11 10 9 8 7 7 7 7 7 8 9 9 10 11 13 14 14 14 15 15 14 13 12 13 13 13 13 13 13 13 12 11 12 14 14 14 12 11 9 8 6 6 7 7 8 8 8 7 7 6 6 6 5 5 5 6 6
12 12 12 11 11 11 11 11 11 11 11 11 11 11 10 11 11 12 12 12 12 12 11 11 10 10 10 11 11 11 11 10 9 8 7 7 7 8 8 9 10 10 11 12 13 13 13 14 13 12 12 12 12 13 14 13 13 13 13 12 12 12 14 14 13 12 11 10 8 6 5 6 7 8 9 9 9 8 7 7 6 6 6 6 6 7
15 14 14 13 13 13 12 12 12 12 13 12 12 11 11 11 11 12 12 12 11 11 11 11 11 12 12 12 12 12 12 12 11 11 10 9 9 9 9 9 9 9 10 11 11 12 12 12 12 12 12 12 12 13 14 14 13 13 13 12 12 13 14 15 13 10 9 8 7 7 6 6 8 9 10 10 10 10 9 9 8 8 8 8 8 7
16 15 15 15 14 14 14 14 14 14 14 14 13 12 11 11 11 12 12 12 11 11 11 12 12 13 13 14 13 13 13 13 13 13 12 11 10 10 9 8 8 8 9 9 10 11 11 11 12 12 13 14 14 14 14 14 14 13 13 12 12 13 14 15 13 9 8 7 7 6 6 7 9 10 11 12 13 13 12 11 10 10 9 9 9 8
17 17 16 16 16 16 16 15 15 15 15 14 14 13 12 11 11 12 12 12 12 12 12 12 13 13 14 14 14 14 13 13 13 13 13 12 11 11 10 9 7 7 8 9 10 11 12 13 13 14 15 16 16 16 16 16 15 14 13 13 13 13 14 14 12 10 8 8 7 7 7 8 9 10 12 14 16 16 15 14 13 12 11 10 9 9
18 18 18 17 17 17 17 16 16 16 15 15 14 14 13 12 12 12 12 12 12 13 13 13 13 14 14 14 14 14 14 13 13 13 13 12 11 11 10 9 8 7 8 9 10 10 11 13 14 16 17 17 18 18 17 17 15 14 13 13 13 13 13 14 12 10 9 9 9 9 9 9 9 9 11 14 16 17 17 17 16 14 12 10 9 9
19 18 18 18 18 17 17 17 16 16 16 15 15 14 14 13 13 13 13 13 13 14 14 14 14 14 15 15 15 14 14 14 14 14 13 12 11 11 10 9 8 7 7 7 7 7 8 8 10 12 14 16 16 15 16 16 15 13 13 13 13 13 13 13 12 11 10 11 11 11 11 11 11 10 11 13 14 16 17 17 16 14 12 11 10 11
Wind_Direction
186 188 192 198 199 197 198 206 212 218 228 236 239 235 229 223 216 212 213 215 217 219 223 227 231 235 240 243 249 257 266 274 280 284 292 265 228 232 248 264 286 318 22 85 104 112 113 114 121 135 144 144 141 135 129 124 119 117 111 102 86 74 69 67 61 53 49 42 37 29 15 7 347 268 249 267 282 280 270 279 267 245 286 306 325 342
181 183 185 192 196 198 198 206 213 220 231 238 236 225 212 205 200 198 201 206 210 214 218 221 226 232 238 243 248 254 262 269 274 275 256 171 185 206 219 225 220 183 145 137 134 132 127 121 127 142 151 147 146 148 148 152 157 163 166 157 130 89 68 50 41 36 24 357 324 289 302 329 299 250 244 249 261 279 289 288 280 273 269 274 288 307
173 175 180 186 193 197 197 201 210 220 230 235 223 198 183 182 183 183 185 189 196 203 209 215 220 225 229 232 237 245 252 258 257 226 130 131 139 162 184 185 175 164 156 149 145 142 138 133 133 138 143 146 166 226 267 274 275 269 255 249 250 255 259 262 269 267 262 271 260 247 244 255 255 249 252 254 258 267 280 283 282 282 286 283 283 286
171 172 176 181 188 194 197 197 201 212 221 224 204 179 172 173 177 179 182 184 188 194 202 208 213 214 213 209 207 209 216 214 189 150 130 128 128 138 156 160 162 160 157 154 153 154 158 163 168 180 203 259 290 303 307 307 305 299 292 281 274 269 267 264 263 263 262 261 256 249 244 244 248 254 260 261 261 262 266 272 276 281 290 293 293 289
172 173 175 177 180 186 194 197 201 209 217 216 200 181 176 178 180 182 185 188 192 196 201 206 208 206 200 187 175 164 161 168 164 152 141 135 130 131 143 153 158 160 161 162 168 176 186 200 216 239 261 279 291 298 303 307 307 307 305 298 290 283 277 272 270 268 265 262 259 254 250 249 250 256 259 257 255 256 260 264 267 270 277 283 288 290
172 174 175 175 177 181 188 195 203 209 210 205 195 186 183 184 185 187 190 194 199 202 204 204 202 199 191 185 172 161 156 159 159 157 154 150 145 144 149 157 163 166 172 178 191 203 218 233 251 265 276 285 291 294 297 299 300 301 301 298 294 290 286 284 282 279 274 268 262 256 252 249 250 251 252 251 251 253 256 261 263 264 268 274 279 282
170 173 175 176 180 185 189 196 203 206 201 192 184 180 181 183 185 188 192 197 201 203 202 198 195 191 187 184 177 167 161 156 154 159 165 166 166 167 170 174 180 186 196 208 220 233 246 259 271 280 286 291 294 295 296 296 296 294 290 287 286 287 289 291 291 288 283 276 268 261 254 250 248 248 248 248 249 250 253 257 260 263 267 271 276 279
168 172 175 178 182 187 191 197 202 200 191 179 171 168 170 173 177 181 186 192 196 198 197 193 191 189 187 187 184 176 167 156 155 171 187 190 190 192 195 200 207 214 223 234 245 255 266 275 283 289 294 297 298 298 297 295 290 283 278 277 280 286 291 295 296 293 287 281 273 266 259 252 248 247 246 247 247 248 250 252 256 260 265 270 273 276
167 170 176 182 184 184 187 193 194 189 179 171 167 165 166 167 170 174 178 182 186 190 191 192 192 192 194 196 196 193 190 192 233 251 245 231 224 220 221 224 230 237 242 253 262 270 276 282 287 293 297 298 298 297 293 288 279 273 271 274 281 289 295 298 299 297 292 286 278 270 261 255 251 247 246 246 246 247 248 251 253 257 262 266 271 274
170 171 175 182 186 186 183 186 185 180 173 171 171 171 172 171 171 172 173 176 179 183 188 192 194 196 200 207 212 216 229 254 271 273 267 257 249 244 242 243 245 249 252 258 265 270 271 275 278 281 284 284 285 284 281 275 271 270 273 279 287 294 300 303 304 305 303 299 292 282 271 262 255 251 249 247 247 248 249 251 253 255 258 262 267 271
169 172 173 177 183 186 184 183 180 176 173 175 178 179 179 179 178 177 177 176 177 180 184 189 192 196 200 209 218 228 239 254 267 270 268 265 260 257 255 255 255 256 256 256 255 255 256 260 264 269 274 276 277 277 275 271 271 273 277 284 291 298 304 307 310 313 313 311 307 301 290 280 270 261 256 253 251 250 250 251 252 254 256 259 262 266
165 168 170 172 176 178 180 180 177 175 177 181 185 189 192 191 189 187 185 182 179 179 182 186 191 196 201 209 220 231 242 251 258 264 267 266 263 261 259 260 261 262 261 260 258 256 257 260 267 273 279 282 283 281 277 274 273 275 279 286 294 301 307 310 312 312 313 312 311 310 304 299 292 284 275 269 262 258 255 254 255 256 256 258 261 264
163 165 166 168 170 171 173 175 177 179 183 187 189 190 191 194 196 195 193 190 186 183 185 187 192 199 208 217 227 236 244 250 254 257 261 261 260 258 258 259 261 263 265 264 264 263 264 267 273 280 285 288 288 284 280 276 274 276 282 289 298 307 311 312 311 312 313 313 312 312 310 308 303 297 291 286 280 274 268 264 263 262 261 262 264 266
161 163 163 164 167 170 173 175 176 178 183 189 192 193 191 192 194 195 195 192 190 189 191 194 199 206 216 226 235 242 246 249 252 252 253 254 255 256 257 260 262 264 266 266 265 265 267 270 275 281 287 290 290 286 281 278 279 285 296 306 313 316 316 314 314 313 313 311 309 306 297 298 298 294 291 290 287 283 280 275 272 270 270 269 268 269
162 162 162 165 169 173 175 178 180 181 185 190 193 194 192 189 189 190 190 189 189 192 195 200 208 218 227 234 239 243 246 247 247 246 246 247 252 257 262 267 270 270 269 266 263 263 266 269 275 282 288 291 289 285 283 289 300 311 317 319 319 318 317 317 317 315 312 308 302 293 281 282 287 288 287 286 285 283 283 280 277 276 277 274 272 272
166 166 166 169 172 175 179 182 183 185 188 189 192 192 188 183 184 186 186 185 188 192 196 202 212 225 237 241 241 240 240 240 241 241 241 245 253 263 270 277 280 279 274 267 261 260 262 267 274 283 290 291 287 278 280 293 304 309 309 310 313 314 314 313 313 312 309 303 293 281 274 273 275 278 282 283 283 284 282 281 279 277 277 274 274 274
170 172 173 173 175 178 182 184 186 188 189 189 189 188 185 182 183 185 186 188 190 193 198 203 210 218 225 231 236 236 232 231 237 242 245 251 261 270 279 284 287 284 277 268 260 256 258 265 275 284 291 290 283 272 277 287 293 297 302 306 309 311 311 309 306 303 300 296 288 277 273 269 265 265 272 277 280 281 280 279 278 275 273 272 270 268
174 177 179 178 178 181 184 185 188 191 192 190 187 187 187 187 189 190 193 196 197 199 204 207 210 208 200 185 215 232 230 229 238 250 257 264 271 279 283 286 286 283 278 269 259 255 256 265 275 285 292 289 280 270 279 287 293 299 304 306 307 307 306 307 304 299 294 287 283 280 276 272 266 262 263 270 276 279 278 277 276 274 274 274 270 263
180 183 185 184 185 186 187 188 190 192 192 191 189 187 187 190 194 197 200 204 206 207 209 211 214 215 209 194 213 232 239 240 251 266 278 281 282 283 285 282 280 280 279 272 264 260 262 268 277 286 293 292 282 272 274 283 292 301 305 307 305 301 299 300 301 299 293 286 283 285 287 285 281 278 275 274 276 278 279 277 276 274 273 273 271 269
186 189 191 193 193 192 191 192 195 196 196 195 194 192 190 193 197 201 205 210 215 219 223 219 220 224 227 220 227 243 253 258 269 281 290 292 290 286 280 270 270 277 282 279 274 271 272 277 283 290 295 297 293 284 276 277 288 300 304 303 299 296 297 300 301 299 295 289 287 292 294 294 292 287 283 281 278 277 280 280 278 275 274 272 270 269
195 194 197 201 201 198 195 196 197 198 198 199 198 196 197 199 202 205 211 216 220 226 231 226 225 233 240 229 234 254 264 270 278 287 291 291 288 282 267 257 264 279 292 293 288 284 285 289 294 298 300 301 297 290 278 269 277 292 295 292 292 296 302 306 306 300 289 289 301 305 301 296 293 290 286 285 284 283 282 282 280 278 275 272 270 269
202 198 198 201 204 204 203 200 197 196 198 202 203 204 206 209 210 213 219 222 223 224 226 223 231 243 250 247 250 259 267 269 272 277 283 281 277 271 255 254 269 288 303 306 303 299 302 303 305 304 301 297 293 287 276 264 265 279 284 285 291 302 314 319 318 311 295 304 314 309 303 301 300 298 297 294 291 287 280 278 278 276 274 271 270 268
203 197 193 193 196 201 204 201 196 194 197 203 210 216 222 223 223 223 224 223 222 222 224 231 242 253 260 263 263 262 261 259 259 262 266 264 263 260 258 267 278 292 306 312 312 311 313 311 308 303 295 289 284 279 267 250 247 261 272 284 302 321 335 340 342 344 344 336 323 314 310 308 307 305 301 298 295 290 283 275 270 267 265 268 269 268
192 190 186 184 186 190 195 195 193 192 195 199 205 212 217 219 218 216 218 221 224 227 232 241 250 258 264 266 265 259 250 243 244 246 247 254 262 267 270 277 284 291 300 307 312 315 315 313 305 294 284 278 274 267 245 218 211 234 267 300 326 340 345 345 345 345 342 332 323 317 315 312 310 308 305 301 298 293 288 283 275 266 259 262 266 267
182 182 181 179 178 180 184 188 191 194 197 201 205 208 209 210 210 213 218 222 227 231 237 241 249 259 264 261 254 246 237 228 230 238 240 251 266 271 271 278 282 287 296 304 311 315 315 311 301 284 272 267 262 246 213 188 184 206 287 325 334 335 332 330 328 326 324 320 316 313 311 311 311 310 308 306 303 299 294 290 285 277 267 265 264 263
179 180 180 179 178 178 180 184 190 196 202 206 209 212 213 213 216 218 221 222 224 226 227 231 244 263 273 270 257 241 230 223 231 240 244 252 265 270 266 272 276 284 296 305 313 317 317 312 297 274 260 252 234 201 181 172 168 183 295 312 315 315 315 316 314 312 310 308 307 307 308 310 310 311 311 310 307 303 299 295 289 283 278 272 264 259
171 175 178 178 178 180 185 191 197 203 209 213 215 216 217 218 218 216 214 215 217 217 218 228 253 274 282 279 266 245 235 241 247 251 253 255 259 262 260 264 272 284 297 307 315 320 318 310 287 257 239 214 185 173 174 177 182 206 249 271 281 288 297 302 305 305 304 304 304 305 306 308 309 309 309 309 308 306 303 299 293 288 282 275 266 259
142 147 151 153 159 167 177 188 199 207 213 215 217 218 221 221 216 210 208 213 217 219 226 241 258 270 276 269 269 268 262 260 258 254 251 248 248 251 253 260 271 285 297 308 316 320 316 294 248 213 192 177 172 175 183 193 208 233 260 275 280 282 283 286 292 299 301 302 301 301 301 301 302 303 304 304 304 303 302 300 296 291 285 276 268 263
144 143 144 149 156 164 170 173 178 184 190 199 211 223 232 229 221 216 216 222 226 232 239 250 258 264 270 278 284 284 279 269 256 246 241 235 237 244 247 255 267 282 297 309 315 316 307 238 197 184 178 175 177 183 192 208 238 272 286 291 291 288 282 276 275 280 287 290 291 292 292 293 295 298 300 301 300 299 298 298 295 290 285 276 268 264
173 172 173 177 180 182 183 183 182 181 179 183 195 218 238 238 235 235 238 243 245 246 249 257 262 264 267 281 289 288 280 262 233 221 224 223 228 239 246 252 262 277 296 309 312 309 292 201 187 185 185 185 187 192 202 227 265 287 293 294 291 286 280 273 267 264 264 267 271 276 281 286 291 295 298 298 297 295 293 293 293 290 284 278 272 269
194 194 194 196 197 198 197 196 194 191 188 188 195 208 224 231 237 242 248 254 258 259 260 262 264 263 260 257 258 279 277 196 160 178 206 216 230 244 250 256 263 273 288 303 315 315 292 213 197 196 198 198 200 207 221 254 281 293 295 292 286 280 275 271 268 265 264 264 265 269 275 280 286 292 297 298 296 293 290 289 290 288 281 279 277 274
202 202 202 204 206 206 206 206 205 203 201 201 205 212 220 229 236 242 249 255 260 264 266 266 266 264 259 247 240 244 254 200 175 208 240 246 251 254 253 257 260 267 278 286 289 281 248 259 224 212 215 217 222 233 251 274 289 295 295 289 280 273 272 272 271 272 272 272 273 275 278 282 287 292 296 297 296 292 289 288 288 286 282 282 280 278
207 207 208 210 212 214 215 217 217 218 218 218 221 224 230 236 240 244 248 253 257 261 263 265 265 263 261 256 254 254 253 252 258 265 270 272 268 260 255 255 254 257 267 274 272 265 257 268 259 243 239 240 245 255 269 284 293 296 293 286 277 272 273 276 277 278 278 278 279 280 281 284 288 291 294 294 292 288 284 284 285 287 287 287 287 286
214 214 215 218 221 224 229 233 236 239 240 241 242 243 245 246 246 247 247 249 252 255 258 260 261 261 260 259 260 263 266 264 264 268 271 271 266 257 255 253 251 251 256 261 260 258 255 253 255 259 261 261 266 274 283 292 298 297 291 286 282 281 282 284 285 284 283 282 281 281 282 284 286 289 290 290 287 283 279 283 288 289 287 287 288 290
219 220 223 226 230 235 240 244 247 249 251 252 253 254 254 252 249 247 245 245 248 252 256 259 262 263 262 261 262 267 276 277 272 268 267 263 256 252 255 253 250 248 247 248 248 249 250 249 250 255 268 278 284 289 295 298 300 297 291 289 290 292 295 296 294 291 288 285 283 282 282 283 284 284 284 283 281 277 276 281 285 284 280 278 279 281
226 227 231 235 239 244 247 249 251 252 252 253 253 254 253 250 247 244 244 245 249 254 258 262 265 268 268 267 268 273 282 288 280 268 263 258 253 252 255 254 251 248 246 245 245 248 255 260 260 263 272 281 289 294 297 297 294 291 289 291 294 297 300 302 300 297 293 289 286 283 281 279 277 276 275 274 272 269 268 268 269 269 267 267 269 272
235 238 241 244 248 251 253 253 252 251 251 249 248 248 246 244 242 243 244 248 252 256 259 262 266 269 272 274 275 277 282 282 274 265 261 259 258 257 257 257 257 256 253 251 251 254 261 268 273 275 275 275 277 283 288 290 290 290 290 294 297 300 303 305 303 299 295 291 286 280 274 270 266 265 265 264 264 264 265 265 265 263 261 260 260 262
242 245 248 252 255 257 258 256 254 251 248 245 244 242 241 241 242 245 249 252 255 258 260 263 265 268 270 273 276 278 279 276 270 264 262 262 262 263 262 262 262 262 261 260 259 260 263 268 273 276 276 274 273 275 280 286 290 293 296 299 301 304 307 308 305 299 292 286 279 271 263 259 259 259 259 261 262 263 264 264 264 263 262 260 258 256
247 251 255 257 261 262 262 260 257 254 251 249 247 247 248 250 253 256 257 260 262 264 266 268 269 270 271 272 274 275 275 273 270 267 265 264 265 266 267 267 266 266 267 266 265 263 262 262 263 266 272 276 278 280 282 286 290 294 298 301 302 304 307 308 306 298 288 277 267 257 250 249 252 256 259 261 262 265 266 264 263 261 262 262 261 260
251 256 262 266 268 268 267 267 265 262 259 259 259 260 262 265 266 267 268 269 271 273 276 277 277 277 275 275 273 273 272 271 270 269 267 266 266 267 268 269 270 271 271 270 268 265 262 259 259 261 264 270 275 279 282 283 286 290 296 299 301 302 308 309 306 296 277 262 252 250 249 250 252 256 258 260 262 265 267 267 266 265 265 267 270 271
256 261 268 273 275 272 272 270 267 266 266 267 268 269 270 271 272 272 274 276 278 279 281 282 281 279 276 274 272 270 270 269 268 268 267 267 267 267 267 268 270 271 272 271 270 267 265 262 261 262 263 266 271 275 277 279 283 287 291 292 295 299 305 307 305 291 262 250 252 259 265 265 265 262 258 255 254 256 262 266 268 269 271 273 278 282
261 265 272 277 277 274 270 269 269 269 270 271 272 273 273 275 276 277 279 281 284 285 286 285 284 281 277 272 269 267 267 266 266 266 265 265 265 265 266 267 268 270 271 271 270 268 267 265 264 264 265 267 269 272 275 278 281 283 283 284 291 298 302 302 297 279 274 278 279 281 282 282 279 272 262 254 247 245 251 259 265 270 275 278 281 285
267 271 275 275 273 269 268 269 271 273 274 274 274 274 275 276 278 280 283 286 288 291 291 290 287 284 280 275 270 265 263 262 263 263 262 262 262 262 264 267 268 268 269 269 269 269 268 267 266 266 268 270 269 269 272 277 280 281 280 282 289 295 295 293 287 284 283 286 287 290 291 290 284 275 264 254 245 242 245 253 260 267 273 279 283 286
273 275 274 272 269 267 268 270 273 276 278 278 278 277 277 277 278 280 283 287 290 293 293 291 288 284 281 279 276 272 267 262 259 259 258 259 260 263 267 269 269 267 266 266 267 267 269 268 268 269 270 272 270 267 268 271 275 278 279 282 282 279 275 283 289 292 290 289 290 292 295 293 285 275 265 256 250 248 250 254 258 262 269 277 284 290
274 273 273 271 270 270 270 273 277 280 281 281 280 279 278 276 276 278 280 284 289 291 291 289 287 284 281 280 281 282 282 277 270 263 260 260 263 270 274 275 273 268 264 263 265 266 266 265 267 271 274 274 271 266 264 266 270 274 277 279 278 276 277 283 288 291 292 296 298 298 299 294 288 281 275 267 261 258 258 259 261 265 272 280 287 293
271 272 272 273 273 274 275 278 280 281 281 282 282 281 278 275 274 275 277 280 284 286 287 284 281 277 274 276 280 282 284 284 284 280 275 273 275 280 283 282 276 269 263 261 262 263 264 266 267 270 272 270 268 265 264 265 267 271 275 277 277 278 282 285 287 291 295 298 302 305 306 296 289 287 286 283 276 268 263 263 269 277 284 288 291 294
269 271 273 275 276 278 279 280 280 280 281 282 283 284 281 277 274 273 273 276 279 281 282 280 277 274 272 274 276 278 278 280 283 284 284 284 284 285 288 285 278 269 262 259 259 260 261 263 265 265 263 260 259 261 264 266 267 268 271 275 278 280 282 284 288 295 301 303 307 311 308 299 295 295 295 292 286 279 273 272 277 284 290 294 296 298
270 272 273 275 275 276 277 278 278 279 280 283 286 287 285 281 276 273 272 273 275 277 277 277 275 274 274 275 276 277 278 280 282 284 286 287 288 291 293 290 281 269 262 259 259 259 260 260 259 258 257 256 255 258 263 265 266 266 269 272 275 277 279 285 292 301 304 305 308 311 310 306 304 303 302 298 293 289 285 284 286 289 293 295 298 301
270 271 272 273 272 272 273 275 277 278 279 283 286 288 287 284 279 275 273 272 273 273 273 273 273 272 272 274 275 277 278 279 281 283 286 288 291 294 297 296 287 275 265 262 262 262 263 263 261 258 257 256 255 256 260 263 264 265 267 268 270 272 276 283 293 303 307 308 308 308 306 304 302 301 301 299 297 295 293 293 292 293 294 296 298 300
268 269 271 271 270 270 272 274 275 276 278 281 284 286 287 285 281 276 273 271 270 270 270 271 271 270 269 271 274 276 276 276 278 279 282 285 288 291 294 295 290 281 273 270 270 270 271 273 270 265 260 257 255 255 256 258 261 264 264 264 265 268 274 282 292 302 308 309 309 308 305 302 299 297 295 294 294 294 295 295 295 296 297 298 298 296
266 268 270 270 270 270 272 274 274 275 277 280 282 283 284 282 279 276 273 271 269 269 270 271 271 269 268 270 273 274 275 275 275 276 279 282 284 285 286 286 284 279 277 274 274 276 278 279 278 275 269 260 255 254 253 253 255 257 259 261 264 269 275 283 294 304 308 308 307 306 305 301 299 296 292 291 290 291 292 293 294 296 297 297 295 292